Showing default

CALSPHERE 4(A), 1520

Orbit data source: Space-Track

CALSPHERE 4(A), 1520 is a payload satellite owned by NRL (US) in LEO that was launched on Fri, 13 Aug 1965 UTC via a THOR ABLESTAR launch vehicle from the Air Force Western Test Range (AFWTR). Payloads include a variety of satellites, spacecraft, and rockets equipped with specific instruments for various scientific and technological missions. These include communications satellites like Starlink; space stations such as the ISS; scientific satellites like the Hubble; Earth observation satellites from companies like Planet Labs, Umbra, and HawkEye 360; GPS; miniature CubeSats for education and research; and military/defense satellites.

Loading next visibility...
CALSPHERE 4(A) details
Identifier
1520, 1965-065H
Orbit
LEO
Last TLE update8 hours ago
Origin
Flag of USNRL (US)
ManufacturerNRL
MissionOperational Defense Calibration
Bus & MotorNRL 14", Unknown motor
Mass4 kg wet, 4 kg dry
Launch date (UTC)
1965-08-13 (59 years ago)
Launch vehicle
THOR ABLESTAR
Launch site
Air Force Western Test Range (AFWTR)
Object type
Payload
Rocket body
Debris
Shape & HBRSphere, 0.4 m
Radar Cross Section0.126 m², Small (<0.1 m²)

Expand to show TLE details & history

TLE from 8 hours ago
0 CALSPHERE 4(A)
1 01520U 65065H   25015.58058087  .00000138  00000-0  24620-3 0  9993
2 01520  89.9352 126.8018 0071029 123.9274   4.6652 13.36156638893587
Epoch: 2025-01-15T13:56Z
Definitive object data (Epoch: 2025-01-15T13:56:02.187Z)
Latitude51.43486°
Longitude-17.55905°
Altitude1,078.864 km
Speed7.343 km/s
True Right ascension20h 26m 53s
True Declination51° 16' 28"
Sunlit
Object was in daylight at TLE epoch
Visualization TLE readout
Latitude-54.86177°
Longitude162.42806°
Altitude1,198.234 km
Speed7.228 km/s
Apparent Right ascension09h 38m 32s
Apparent Declination-49° 07' 06"
Sunlit
Object is in daylight
Visualization observer readout
Local Sidereal Time22:42:16
Azimuth134.418° SE
Elevation-75.431°
Doppler factor1
Orbital elements
Apogee altitude1,173.964 km
Perigee altitude1,067.437 km
Semi-major axis7,498.837 km
Eccentricity0.0071029
Inclination89.9352°
RAAN126.8018°
Arg. of periapsis123.9274°
True anomaly4.73199°
Mean anomaly4.6652°
Eccentric anomaly4.69854°
Mean motion3.34235 °/min
BSTAR0.0002462
Orbital period107.71 mins
Loading maneuver chart data...
Loading historical data...
Loading historical data...
Loading historical data...
Loading historical data...
Loading historical data...
Loading historical data...
Loading historical data...

CALSPHERE 4(A) Visibility forecast

Observer location: undefined°, undefined

Span
Click to sort rows by Start time (UTC) header in descending order
Start Az.
Max El. time (UTC)
Max El. Az.
Max El.
End time (UTC)
End Az.
13 mins2025-01-16 07:21:20.201Z166.166° S2025-01-16 07:28:20.201Z71.799° E43.189°2025-01-16 07:34:20.201Z3.311° NNE
7 mins2025-01-16 09:13:20.201Z251.744° W2025-01-16 09:16:20.201Z282.28° WNW17.733°2025-01-16 09:20:20.201Z320.772° NNW
10 mins2025-01-16 18:40:20.201Z29.201° NE2025-01-16 18:44:20.201Z77.891° E28.922°2025-01-16 18:50:20.201Z146.059° SSE
10 mins2025-01-16 20:27:20.201Z341.106° N2025-01-16 20:32:20.201Z279.197° WNW31.293°2025-01-16 20:37:20.201Z220.47° SW
|